Petersburg, WV

1:07 PM EST on January 19, 2018 (GMT -0500)
Petersburg

Weather History for KW99 - April, 2014

Change the Weather History Date:

Friday, April 4, 2014

  Actual Average (KEKN) Record (KEKN)
Temperature  
Mean Temperature 58 °F -  
Max Temperature 64 °F 58 °F 83 °F (2011)
Min Temperature 54 °F 34 °F 15 °F (1992)
Degree Days  
Heating Degree Days 6    
Growing Degree Days 8 (Base 50)    
Moisture  
Dew Point 53 °F    
Average Humidity 88    
Maximum Humidity 94    
Minimum Humidity 65    
Precipitation  
Precipitation 0.03 in - - ()
Sea Level Pressure  
Sea Level Pressure 29.79 in    
Wind  
Wind Speed 3 mph (North)    
Max Wind Speed 21 mph    
Max Gust Speed 28 mph    
Visibility 5 miles    
Events Rain , Thunderstorm    
Averages and records for this station are not official NWS values.
T = Trace of Precipitation, MM = Missing Value Source: NWS Daily Summary

Daily Weather History Graph

Daily Weather History Graph

Search for Another Location

Airport or City:

Trip Planner

Search our weather history database for the weather conditions in past years. The results will help you decide how hot, cold, wet, or windy it might be!

Date:

Astronomy

Apr. 04, 2014 Rise Set
Actual Time 6:56 AM EDT 7:43 PM EDT
Civil Twilight 6:29 AM EDT 8:10 PM EDT
Nautical Twilight 5:57 AM EDT 8:42 PM EDT
Astronomical Twilight 5:24 AM EDT 9:15 PM EDT
Moon 10:13 AM EDT (4/4) No Moon Set
Length of Visible Light 13h 40m
Length of Day
12h 46m
Waxing Crescent, 25% of the Moon is Illuminated
Apr 4
Waxing Crescent
Apr 7
First Quarter
Apr 15
Full
Apr 22
Last Quarter
Apr 29
New

Hourly Weather History & Observations

Time (EDT) Temp. Dew Point Humidity Pressure Visibility Wind Dir Wind Speed Gust Speed Precip Events Conditions
12:15 AM 58.5 °F 54.9 °F 88% 29.90 in 7.0 mi WNW 4.6 mph - N/A   Overcast
12:55 AM 58.1 °F 54.5 °F 88% 29.89 in 7.0 mi Calm Calm - N/A   Overcast
1:15 AM 57.6 °F 54.1 °F 88% 29.88 in 7.0 mi NNE 4.6 mph - N/A   Overcast
1:35 AM 56.7 °F 53.2 °F 88% 29.87 in 7.0 mi Calm Calm - N/A   Scattered Clouds
1:55 AM 54.9 °F 52.3 °F 91% 29.86 in 4.0 mi WNW 3.5 mph - N/A   Scattered Clouds
2:15 AM 55.8 °F 53.6 °F 92% 29.87 in 5.0 mi Calm Calm - N/A   Overcast
2:35 AM 56.5 °F 53.4 °F 89% 29.85 in 5.0 mi North 5.8 mph - N/A   Mostly Cloudy
2:55 AM 55.6 °F 52.7 °F 90% 29.85 in 5.0 mi North 5.8 mph - N/A   Mostly Cloudy
3:15 AM 55.0 °F 52.7 °F 92% 29.85 in 5.0 mi Calm Calm - N/A   Mostly Cloudy
3:35 AM 55.4 °F 52.9 °F 91% 29.85 in 5.0 mi North 6.9 mph - N/A   Overcast
3:55 AM 55.4 °F 52.7 °F 91% 29.86 in 5.0 mi NNW 4.6 mph - N/A   Overcast
4:15 AM 55.0 °F 52.2 °F 90% 29.86 in 5.0 mi North 3.5 mph - N/A   Overcast
4:35 AM 54.9 °F 52.2 °F 91% 29.86 in 5.0 mi NNW 4.6 mph - N/A   Overcast
4:55 AM 54.7 °F 52.2 °F 91% 29.86 in 4.0 mi North 3.5 mph - N/A   Overcast
5:15 AM 54.7 °F 52.2 °F 91% 29.87 in 5.0 mi NNW 4.6 mph - N/A   Overcast
5:35 AM 54.9 °F 52.2 °F 91% 29.87 in 5.0 mi Calm Calm - N/A   Overcast
5:55 AM 54.7 °F 52.0 °F 91% 29.87 in 4.0 mi Calm Calm - N/A   Overcast
6:15 AM 54.7 °F 52.0 °F 91% 29.87 in 4.0 mi Calm Calm - N/A   Overcast
6:35 AM 54.7 °F 52.0 °F 91% 29.88 in 3.0 mi Calm Calm - N/A   Overcast
6:55 AM 54.1 °F 52.2 °F 93% 29.88 in 2.0 mi Calm Calm - N/A   Overcast
7:15 AM 54.1 °F 52.3 °F 94% 29.88 in 3.0 mi Calm Calm - N/A   Overcast
7:35 AM 54.5 °F 51.8 °F 91% 29.88 in 4.0 mi Calm Calm - N/A   Overcast
7:55 AM 54.1 °F 52.2 °F 93% 29.88 in 1.8 mi Calm Calm - N/A   Overcast
8:15 AM 54.1 °F 52.5 °F 94% 29.87 in 1.5 mi Calm Calm - N/A   Overcast
8:35 AM 54.1 °F 51.8 °F 92% 29.88 in 2.5 mi Calm Calm - N/A   Overcast
8:55 AM 54.1 °F 51.6 °F 91% 29.87 in 2.5 mi Calm Calm - N/A   Overcast
9:15 AM 54.1 °F 51.3 °F 90% 29.87 in 2.5 mi Calm Calm - N/A   Overcast
9:35 AM 54.1 °F 51.4 °F 91% 29.86 in 2.0 mi Calm Calm - N/A   Overcast
9:55 AM 54.1 °F 51.8 °F 92% 29.85 in 1.5 mi Calm Calm - N/A   Overcast
10:15 AM 54.5 °F 52.7 °F 94% 29.85 in 1.8 mi NNE 3.5 mph - N/A   Overcast
10:35 AM 54.7 °F 52.3 °F 92% 29.85 in 1.8 mi Calm Calm - N/A   Overcast
10:55 AM 55.0 °F 52.7 °F 92% 29.84 in 2.0 mi Calm Calm - N/A   Overcast
11:15 AM 55.6 °F 52.3 °F 89% 29.82 in 2.5 mi Calm Calm - N/A   Overcast
11:35 AM 55.6 °F 52.3 °F 89% 29.81 in 2.5 mi North 5.8 mph - N/A   Overcast
12:15 PM 56.7 °F 52.9 °F 87% 29.80 in 3.0 mi NNE 4.6 mph - N/A   Overcast
12:35 PM 57.0 °F 52.7 °F 85% 29.78 in 3.0 mi NNE 3.5 mph - N/A   Overcast
12:55 PM 56.5 °F 52.0 °F 85% 29.78 in 3.0 mi NW 5.8 mph - N/A Thunderstorm Overcast
1:15 PM 55.9 °F 51.6 °F 85% 29.79 in 3.0 mi WNW 5.8 mph - N/A Rain , Thunderstorm Light Thunderstorms and Rain
1:35 PM 54.7 °F 50.9 °F 87% 29.78 in 2.5 mi Calm Calm - 0.02 in Rain Rain
2:15 PM 54.9 °F 51.3 °F 88% 29.74 in 4.0 mi West 3.5 mph - N/A   Light Drizzle
2:35 PM 56.1 °F 52.5 °F 88% 29.74 in 4.0 mi West 5.8 mph - N/A   Mostly Cloudy
2:55 PM 55.9 °F 52.2 °F 87% 29.72 in 5.0 mi WNW 3.5 mph - N/A   Overcast
3:15 PM 57.7 °F 53.6 °F 86% 29.71 in 5.0 mi Calm Calm - N/A   Overcast
3:35 PM 58.6 °F 53.4 °F 83% 29.69 in 5.0 mi Calm Calm - N/A   Haze
3:55 PM 59.4 °F 54.5 °F 84% 29.69 in 5.0 mi Calm Calm - N/A   Mostly Cloudy
4:15 PM 61.5 °F 55.8 °F 81% 29.69 in 7.0 mi Calm Calm - N/A   Mostly Cloudy
4:55 PM 63.5 °F 55.8 °F 76% 29.67 in 7.0 mi Calm Calm - N/A   Clear
5:15 PM 62.2 °F 55.2 °F 78% 29.67 in 7.0 mi NNW 6.9 mph - N/A   Clear
5:35 PM 61.7 °F 55.0 °F 79% 29.67 in 7.0 mi North 4.6 mph - N/A   Mostly Cloudy
5:55 PM 61.0 °F 54.7 °F 80% 29.68 in 7.0 mi North 6.9 mph - N/A   Overcast
6:15 PM 59.4 °F 53.2 °F 80% 29.67 in 7.0 mi NNE 4.6 mph - N/A   Mostly Cloudy
6:35 PM 58.8 °F 53.1 °F 81% 29.67 in 7.0 mi NNW 3.5 mph - N/A   Mostly Cloudy
6:55 PM 58.5 °F 53.2 °F 83% 29.67 in 7.0 mi NW 3.5 mph - N/A   Overcast
7:15 PM 57.4 °F 52.3 °F 83% 29.69 in 5.0 mi NNE 5.8 mph - N/A Rain Rain
7:35 PM 55.6 °F 51.6 °F 87% 29.70 in 4.0 mi SSE 3.5 mph - 0.01 in Rain Light Rain
7:55 PM 54.9 °F 52.2 °F 91% 29.70 in 5.0 mi South 4.6 mph - 0.01 in   Mostly Cloudy
8:15 PM 55.0 °F 52.0 °F 89% 29.70 in 5.0 mi Calm Calm - N/A   Scattered Clouds
8:35 PM 55.8 °F 53.2 °F 91% 29.70 in 5.0 mi SE 4.6 mph - N/A   Clear
8:55 PM 55.4 °F 52.7 °F 91% 29.71 in 5.0 mi East 3.5 mph - N/A   Clear
9:15 PM 55.2 °F 53.4 °F 94% 29.71 in 4.0 mi NE 3.5 mph - N/A   Scattered Clouds
9:35 PM 55.6 °F 54.0 °F 94% 29.70 in 4.0 mi East 3.5 mph - N/A   Scattered Clouds
9:55 PM 56.7 °F 54.5 °F 92% 29.70 in 5.0 mi ESE 3.5 mph - N/A   Scattered Clouds
10:15 PM 56.7 °F 54.5 °F 92% 29.70 in 5.0 mi ESE 3.5 mph - N/A   Scattered Clouds
10:35 PM 57.7 °F 53.6 °F 86% 29.70 in 7.0 mi SE 4.6 mph - N/A   Clear
10:55 PM 62.6 °F 52.3 °F 69% 29.71 in 10.0 mi SW 10.4 mph 19.6 mph N/A   Scattered Clouds
11:15 PM 61.3 °F 53.2 °F 75% 29.72 in 10.0 mi NNE 10.4 mph 16.1 mph N/A   Mostly Cloudy
11:35 PM 59.0 °F 53.2 °F 81% 29.72 in 10.0 mi Calm Calm - N/A   Mostly Cloudy
11:55 PM 64.2 °F 52.2 °F 65% 29.73 in 10.0 mi West 20.7 mph 27.6 mph N/A   Scattered Clouds